Year,Month,Day,Hour,Minute,Value (Times are PST for temperature in C)
2015,11,20,00,00,-2.00
2015,11,20,00,01,-2.10
2015,11,20,00,02,-2.10
2015,11,20,00,03,-2.10
2015,11,20,00,04,-2.10
2015,11,20,00,05,-2.10
2015,11,20,00,06,-2.10
2015,11,20,00,07,-2.10
2015,11,20,00,08,-2.10
2015,11,20,00,09,-2.10
2015,11,20,00,10,-2.10
2015,11,20,00,11,-2.10
2015,11,20,00,12,-2.10
2015,11,20,00,13,-2.10
2015,11,20,00,14,-2.10
2015,11,20,00,15,-2.10
2015,11,20,00,16,-2.20
2015,11,20,00,17,-2.20
2015,11,20,00,18,-2.20
2015,11,20,00,19,-2.20
2015,11,20,00,20,-2.20
2015,11,20,00,21,-2.20
2015,11,20,00,22,-2.20
2015,11,20,00,23,-2.20
2015,11,20,00,24,-2.20
2015,11,20,00,25,-2.10
2015,11,20,00,26,-2.10
2015,11,20,00,27,-2.10
2015,11,20,00,28,-2.10
2015,11,20,00,29,-2.10
2015,11,20,00,30,-2.10
2015,11,20,00,31,-2.10
2015,11,20,00,32,-2.10
2015,11,20,00,33,-2.10
2015,11,20,00,34,-2.10
2015,11,20,00,35,-2.10
2015,11,20,00,36,-2.10
2015,11,20,00,37,-2.10
2015,11,20,00,38,-2.10
2015,11,20,00,39,-2.10
2015,11,20,00,40,-2.10
2015,11,20,00,41,-2.10
2015,11,20,00,42,-2.10
2015,11,20,00,43,-2.20
2015,11,20,00,44,-2.20
2015,11,20,00,45,-2.20
2015,11,20,00,46,-2.20
2015,11,20,00,47,-2.20
2015,11,20,00,48,-2.20
2015,11,20,00,49,-2.20
2015,11,20,00,50,-2.20
2015,11,20,00,51,-2.20
2015,11,20,00,52,-2.20
2015,11,20,00,53,-2.20
2015,11,20,00,54,-2.20
2015,11,20,00,55,-2.20
2015,11,20,00,56,-2.20
2015,11,20,00,57,-2.20
2015,11,20,00,58,-2.20
2015,11,20,00,59,-2.20
2015,11,20,01,00,-2.20
2015,11,20,01,01,-2.30
2015,11,20,01,02,-2.30
2015,11,20,01,03,-2.40
2015,11,20,01,04,-2.40
2015,11,20,01,05,-2.50
2015,11,20,01,06,-2.50
2015,11,20,01,07,-2.60
2015,11,20,01,08,-2.60
2015,11,20,01,09,-2.70
2015,11,20,01,10,-2.70
2015,11,20,01,11,-2.70
2015,11,20,01,12,-2.80
2015,11,20,01,13,-2.80
2015,11,20,01,14,-2.80
2015,11,20,01,15,-2.80
2015,11,20,01,16,-2.90
2015,11,20,01,17,-2.90
2015,11,20,01,18,-2.90
2015,11,20,01,19,-2.90
2015,11,20,01,20,-2.90
2015,11,20,01,21,-2.90
2015,11,20,01,22,-2.90
2015,11,20,01,23,-2.90
2015,11,20,01,24,-2.90
2015,11,20,01,25,-2.90
2015,11,20,01,26,-3.00
2015,11,20,01,27,-3.00
2015,11,20,01,28,-3.00
2015,11,20,01,29,-3.00
2015,11,20,01,30,-3.10
2015,11,20,01,31,-3.10
2015,11,20,01,32,-3.10
2015,11,20,01,33,-3.10
2015,11,20,01,34,-3.10
2015,11,20,01,35,-3.10
2015,11,20,01,36,-3.10
2015,11,20,01,37,-3.00
2015,11,20,01,38,-3.00
2015,11,20,01,39,-3.00
2015,11,20,01,40,-3.00
2015,11,20,01,41,-3.00
2015,11,20,01,42,-3.00
2015,11,20,01,43,-3.10
2015,11,20,01,44,-3.00
2015,11,20,01,45,-3.10
2015,11,20,01,46,-3.00
2015,11,20,01,47,-3.00
2015,11,20,01,48,-3.00
2015,11,20,01,49,-3.00
2015,11,20,01,50,-3.00
2015,11,20,01,51,-2.90
2015,11,20,01,52,-2.90
2015,11,20,01,53,-2.90
2015,11,20,01,54,-2.90
2015,11,20,01,55,-2.90
2015,11,20,01,56,-2.90
2015,11,20,01,57,-2.90
2015,11,20,01,58,-2.90
2015,11,20,01,59,-2.80
2015,11,20,02,00,-2.80
2015,11,20,02,01,-2.80
2015,11,20,02,02,-2.80
2015,11,20,02,03,-2.90
2015,11,20,02,04,-2.90
2015,11,20,02,05,-2.90
2015,11,20,02,06,-2.80
2015,11,20,02,07,-2.80
2015,11,20,02,08,-2.80
2015,11,20,02,09,-2.80
2015,11,20,02,10,-2.70
2015,11,20,02,11,-2.70
2015,11,20,02,12,-2.70
2015,11,20,02,13,-2.70
2015,11,20,02,14,-2.70
2015,11,20,02,15,-2.70
2015,11,20,02,16,-2.70
2015,11,20,02,17,-2.60
2015,11,20,02,18,-2.70
2015,11,20,02,19,-2.70
2015,11,20,02,20,-2.70
2015,11,20,02,21,-2.80
2015,11,20,02,22,-2.80
2015,11,20,02,23,-2.90
2015,11,20,02,24,-3.00
2015,11,20,02,25,-3.00
2015,11,20,02,26,-3.10
2015,11,20,02,27,-3.10
2015,11,20,02,28,-3.10
2015,11,20,02,29,-3.10
2015,11,20,02,30,-3.20
2015,11,20,02,31,-3.20
2015,11,20,02,32,-3.20
2015,11,20,02,33,-3.10
2015,11,20,02,34,-3.10
2015,11,20,02,35,-3.10
2015,11,20,02,36,-3.00
2015,11,20,02,37,-3.00
2015,11,20,02,38,-2.90
2015,11,20,02,39,-2.90
2015,11,20,02,40,-2.90
2015,11,20,02,41,-2.90
2015,11,20,02,42,-2.90
2015,11,20,02,43,-2.80
2015,11,20,02,44,-2.80
2015,11,20,02,45,-2.80
2015,11,20,02,46,-2.80
2015,11,20,02,47,-2.80
2015,11,20,02,48,-2.80
2015,11,20,02,49,-2.80
2015,11,20,02,50,-2.80
2015,11,20,02,51,-2.80
2015,11,20,02,52,-2.80
2015,11,20,02,53,-2.80
2015,11,20,02,54,-2.80
2015,11,20,02,55,-2.90
2015,11,20,02,56,-2.90
2015,11,20,02,57,-2.90
2015,11,20,02,58,-2.90
2015,11,20,02,59,-3.00
2015,11,20,03,00,-3.10
2015,11,20,03,01,-3.20
2015,11,20,03,02,-3.20
2015,11,20,03,03,-3.30
2015,11,20,03,04,-3.30
2015,11,20,03,05,-3.30
2015,11,20,03,06,-3.30
2015,11,20,03,07,-3.30
2015,11,20,03,08,-3.40
2015,11,20,03,09,-3.40
2015,11,20,03,10,-3.40
2015,11,20,03,11,-3.40
2015,11,20,03,12,-3.40
2015,11,20,03,13,-3.40
2015,11,20,03,14,-3.40
2015,11,20,03,15,-3.40
2015,11,20,03,16,-3.40
2015,11,20,03,17,-3.40
2015,11,20,03,18,-3.40
2015,11,20,03,19,-3.40
2015,11,20,03,20,-3.40
2015,11,20,03,21,-3.40
2015,11,20,03,22,-3.40
2015,11,20,03,23,-3.40
2015,11,20,03,24,-3.40
2015,11,20,03,25,-3.40
2015,11,20,03,26,-3.40
2015,11,20,03,27,-3.40
2015,11,20,03,28,-3.40
2015,11,20,03,29,-3.30
2015,11,20,03,30,-3.30
2015,11,20,03,31,-3.30
2015,11,20,03,32,-3.30
2015,11,20,03,33,-3.20
2015,11,20,03,34,-3.20
2015,11,20,03,35,-3.20
2015,11,20,03,36,-3.20
2015,11,20,03,37,-3.20
2015,11,20,03,38,-3.10
2015,11,20,03,39,-3.10
2015,11,20,03,40,-3.10
2015,11,20,03,41,-3.10
2015,11,20,03,42,-3.10
2015,11,20,03,43,-3.10
2015,11,20,03,44,-3.00
2015,11,20,03,45,-3.00
2015,11,20,03,46,-3.00
2015,11,20,03,47,-3.10
2015,11,20,03,48,-3.10
2015,11,20,03,49,-3.10
2015,11,20,03,50,-3.10
2015,11,20,03,51,-3.20
2015,11,20,03,52,-3.20
2015,11,20,03,53,-3.20
2015,11,20,03,54,-3.30
2015,11,20,03,55,-3.30
2015,11,20,03,56,-3.30
2015,11,20,03,57,-3.40
2015,11,20,03,58,-3.40
2015,11,20,03,59,-3.40
2015,11,20,04,00,-3.50
2015,11,20,04,01,-3.50
2015,11,20,04,02,-3.60
2015,11,20,04,03,-3.60
2015,11,20,04,04,-3.60
2015,11,20,04,05,-3.60
2015,11,20,04,06,-3.60
2015,11,20,04,07,-3.70
2015,11,20,04,08,-3.70
2015,11,20,04,09,-3.70
2015,11,20,04,10,-3.70
2015,11,20,04,11,-3.70
2015,11,20,04,12,-3.60
2015,11,20,04,13,-3.60
2015,11,20,04,14,-3.60
2015,11,20,04,15,-3.60
2015,11,20,04,16,-3.60
2015,11,20,04,17,-3.60
2015,11,20,04,18,-3.60
2015,11,20,04,19,-3.50
2015,11,20,04,20,-3.50
2015,11,20,04,21,-3.50
2015,11,20,04,22,-3.40
2015,11,20,04,23,-3.40
2015,11,20,04,24,-3.40
2015,11,20,04,25,-3.40
2015,11,20,04,26,-3.40
2015,11,20,04,27,-3.30
2015,11,20,04,28,-3.40
2015,11,20,04,29,-3.40
2015,11,20,04,30,-3.40
2015,11,20,04,31,-3.40
2015,11,20,04,32,-3.40
2015,11,20,04,33,-3.40
2015,11,20,04,34,-3.50
2015,11,20,04,35,-3.50
2015,11,20,04,36,-3.50
2015,11,20,04,37,-3.50
2015,11,20,04,38,-3.60
2015,11,20,04,39,-3.60
2015,11,20,04,40,-3.60
2015,11,20,04,41,-3.60
2015,11,20,04,42,-3.60
2015,11,20,04,43,-3.70
2015,11,20,04,44,-3.60
2015,11,20,04,45,-3.60
2015,11,20,04,46,-3.60
2015,11,20,04,47,-3.60
2015,11,20,04,48,-3.60
2015,11,20,04,49,-3.60
2015,11,20,04,50,-3.60
2015,11,20,04,51,-3.60
2015,11,20,04,52,-3.60
2015,11,20,04,53,-3.60
2015,11,20,04,54,-3.60
2015,11,20,04,55,-3.60
2015,11,20,04,56,-3.60
2015,11,20,04,57,-3.60
2015,11,20,04,58,-3.70
2015,11,20,04,59,-3.70
2015,11,20,05,00,-3.70
2015,11,20,05,01,-3.70
2015,11,20,05,02,-3.80
2015,11,20,05,03,-3.80
2015,11,20,05,04,-3.80
2015,11,20,05,05,-3.80
2015,11,20,05,06,-3.80
2015,11,20,05,07,-3.80
2015,11,20,05,08,-3.80
2015,11,20,05,09,-3.80
2015,11,20,05,10,-3.80
2015,11,20,05,11,-3.80
2015,11,20,05,12,-3.80
2015,11,20,05,13,-3.80
2015,11,20,05,14,-3.80
2015,11,20,05,15,-3.80
2015,11,20,05,16,-3.80
2015,11,20,05,17,-3.80
2015,11,20,05,18,-3.80
2015,11,20,05,19,-3.80
2015,11,20,05,20,-3.80
2015,11,20,05,21,-3.80
2015,11,20,05,22,-3.80
2015,11,20,05,23,-3.80
2015,11,20,05,24,-3.80
2015,11,20,05,25,-3.80
2015,11,20,05,26,-3.80
2015,11,20,05,27,-3.80
2015,11,20,05,28,-3.80
2015,11,20,05,29,-3.80
2015,11,20,05,30,-3.80
2015,11,20,05,31,-3.80
2015,11,20,05,32,-3.80
2015,11,20,05,33,-3.80
2015,11,20,05,34,-3.90
2015,11,20,05,35,-3.90
2015,11,20,05,36,-3.90
2015,11,20,05,37,-3.90
2015,11,20,05,38,-3.90
2015,11,20,05,39,-3.90
2015,11,20,05,40,-4.00
2015,11,20,05,41,-4.00
2015,11,20,05,42,-4.00
2015,11,20,05,43,-4.00
2015,11,20,05,44,-4.10
2015,11,20,05,45,-4.10
2015,11,20,05,46,-4.10
2015,11,20,05,47,-4.10
2015,11,20,05,48,-4.10
2015,11,20,05,49,-4.10
2015,11,20,05,50,-4.10
2015,11,20,05,51,-4.10
2015,11,20,05,52,-4.10
2015,11,20,05,53,-4.10
2015,11,20,05,54,-4.10
2015,11,20,05,55,-4.10
2015,11,20,05,56,-4.10
2015,11,20,05,57,-4.10
2015,11,20,05,58,-4.10
2015,11,20,05,59,-4.10
2015,11,20,06,00,-4.10
2015,11,20,06,01,-4.10
2015,11,20,06,02,-4.00
2015,11,20,06,03,-4.00
2015,11,20,06,04,-4.00
2015,11,20,06,05,-4.00
2015,11,20,06,06,-4.00
2015,11,20,06,07,-4.00
2015,11,20,06,08,-3.90
2015,11,20,06,09,-3.90
2015,11,20,06,10,-3.90
2015,11,20,06,11,-3.90
2015,11,20,06,12,-3.80
2015,11,20,06,13,-3.80
2015,11,20,06,14,-3.80
2015,11,20,06,15,-3.80
2015,11,20,06,16,-3.80
2015,11,20,06,17,-3.80
2015,11,20,06,18,-3.80
2015,11,20,06,19,-3.80
2015,11,20,06,20,-3.80
2015,11,20,06,21,-3.90
2015,11,20,06,22,-3.90
2015,11,20,06,23,-4.00
2015,11,20,06,24,-4.00
2015,11,20,06,25,-4.10
2015,11,20,06,26,-4.10
2015,11,20,06,27,-4.10
2015,11,20,06,28,-4.10
2015,11,20,06,29,-4.20
2015,11,20,06,30,-4.20
2015,11,20,06,31,-4.20
2015,11,20,06,32,-4.20
2015,11,20,06,33,-4.20
2015,11,20,06,34,-4.30
2015,11,20,06,35,-4.20
2015,11,20,06,36,-4.20
2015,11,20,06,37,-4.20
2015,11,20,06,38,-4.20
2015,11,20,06,39,-4.20
2015,11,20,06,40,-4.20
2015,11,20,06,41,-4.20
2015,11,20,06,42,-4.20
2015,11,20,06,43,-4.20
2015,11,20,06,44,-4.20
2015,11,20,06,45,-4.20
2015,11,20,06,46,-4.20
2015,11,20,06,47,-4.20
2015,11,20,06,48,-4.20
2015,11,20,06,49,-4.20
2015,11,20,06,50,-4.20
2015,11,20,06,51,-4.20
2015,11,20,06,52,-4.20
2015,11,20,06,53,-4.20
2015,11,20,06,54,-4.10
2015,11,20,06,55,-4.10
2015,11,20,06,56,-4.10
2015,11,20,06,57,-4.10
2015,11,20,06,58,-4.10
2015,11,20,06,59,-4.10
2015,11,20,07,00,-4.10
2015,11,20,07,01,-4.10
2015,11,20,07,02,-4.10
2015,11,20,07,03,-4.10
2015,11,20,07,04,-4.10
2015,11,20,07,05,-4.10
2015,11,20,07,06,-4.10
2015,11,20,07,07,-4.10
2015,11,20,07,08,-4.10
2015,11,20,07,09,-4.10
2015,11,20,07,10,-4.10
2015,11,20,07,11,-4.10
2015,11,20,07,12,-4.10
2015,11,20,07,13,-4.00
2015,11,20,07,14,-4.00
2015,11,20,07,15,-4.00
2015,11,20,07,16,-4.00
2015,11,20,07,17,-4.10
2015,11,20,07,18,-4.10
2015,11,20,07,19,-4.10
2015,11,20,07,20,-4.10
2015,11,20,07,21,-4.10
2015,11,20,07,22,-4.10
2015,11,20,07,23,-4.10
2015,11,20,07,24,-4.10
2015,11,20,07,25,-4.10
2015,11,20,07,26,-4.10
2015,11,20,07,27,-4.10
2015,11,20,07,28,-4.10
2015,11,20,07,29,-4.10
2015,11,20,07,30,-4.10
2015,11,20,07,31,-4.10
2015,11,20,07,32,-4.10
2015,11,20,07,33,-4.10
2015,11,20,07,34,-4.10
2015,11,20,07,35,-4.10
2015,11,20,07,36,-4.10
2015,11,20,07,37,-4.10
2015,11,20,07,38,-4.00
2015,11,20,07,39,-4.00
2015,11,20,07,40,-4.00
2015,11,20,07,41,-4.00
2015,11,20,07,42,-4.00
2015,11,20,07,43,-4.00
2015,11,20,07,44,-4.00
2015,11,20,07,45,-4.00
2015,11,20,07,46,-4.00
2015,11,20,07,47,-4.00
2015,11,20,07,48,-4.00
2015,11,20,07,49,-4.00
2015,11,20,07,50,-4.10
2015,11,20,07,51,-4.10
2015,11,20,07,52,-4.10
2015,11,20,07,53,-4.10
2015,11,20,07,54,-4.10
2015,11,20,07,55,-4.10
2015,11,20,07,56,-4.10
2015,11,20,07,57,-4.10
2015,11,20,07,58,-4.10
2015,11,20,07,59,-4.10
2015,11,20,08,00,-4.10
2015,11,20,08,01,-4.10
2015,11,20,08,02,-4.10
2015,11,20,08,03,-4.10
2015,11,20,08,04,-4.10
2015,11,20,08,05,-4.10
2015,11,20,08,06,-4.00
2015,11,20,08,07,-4.00
2015,11,20,08,08,-4.00
2015,11,20,08,09,-4.00
2015,11,20,08,10,-3.90
2015,11,20,08,11,-3.90
2015,11,20,08,12,-3.90
2015,11,20,08,13,-3.90
2015,11,20,08,14,-3.90
2015,11,20,08,15,-3.80
2015,11,20,08,16,-3.80
2015,11,20,08,17,-3.80
2015,11,20,08,18,-3.80
2015,11,20,08,19,-3.80
2015,11,20,08,20,-3.70
2015,11,20,08,21,-3.70
2015,11,20,08,22,-3.60
2015,11,20,08,23,-3.60
2015,11,20,08,24,-3.50
2015,11,20,08,25,-3.50
2015,11,20,08,26,-3.40
2015,11,20,08,27,-3.40
2015,11,20,08,28,-3.30
2015,11,20,08,29,-3.30
2015,11,20,08,30,-3.20
2015,11,20,08,31,-3.20
2015,11,20,08,32,-3.10
2015,11,20,08,33,-3.10
2015,11,20,08,34,-3.10
2015,11,20,08,35,-3.00
2015,11,20,08,36,-3.00
2015,11,20,08,37,-3.00
2015,11,20,08,38,-3.00
2015,11,20,08,39,-3.00
2015,11,20,08,40,-3.00
2015,11,20,08,41,-3.00
2015,11,20,08,42,-3.00
2015,11,20,08,43,-3.00
2015,11,20,08,44,-3.00
2015,11,20,08,45,-3.00
2015,11,20,08,46,-2.90
2015,11,20,08,47,-2.80
2015,11,20,08,48,-2.70
2015,11,20,08,49,-2.60
2015,11,20,08,50,-2.50
2015,11,20,08,51,-2.40
2015,11,20,08,52,-2.30
2015,11,20,08,53,-2.30
2015,11,20,08,54,-2.20
2015,11,20,08,55,-2.20
2015,11,20,08,56,-2.20
2015,11,20,08,57,-2.20
2015,11,20,08,58,-2.30
2015,11,20,08,59,-2.30
2015,11,20,09,00,-2.30
2015,11,20,09,01,-2.30
2015,11,20,09,02,-2.30
2015,11,20,09,03,-2.30
2015,11,20,09,04,-2.20
2015,11,20,09,05,-2.20
2015,11,20,09,06,-2.20
2015,11,20,09,07,-2.20
2015,11,20,09,08,-2.10
2015,11,20,09,09,-2.00
2015,11,20,09,10,-1.90
2015,11,20,09,11,-1.90
2015,11,20,09,12,-1.90
2015,11,20,09,13,-1.80
2015,11,20,09,14,-1.80
2015,11,20,09,15,-1.80
2015,11,20,09,16,-1.80
2015,11,20,09,17,-1.80
2015,11,20,09,18,-1.70
2015,11,20,09,19,-1.70
2015,11,20,09,20,-1.70
2015,11,20,09,21,-1.60
2015,11,20,09,22,-1.60
2015,11,20,09,23,-1.50
2015,11,20,09,24,-1.50
2015,11,20,09,25,-1.40
2015,11,20,09,26,-1.30
2015,11,20,09,27,-1.20
2015,11,20,09,28,-1.10
2015,11,20,09,29,-1.00
2015,11,20,09,30,-0.90
2015,11,20,09,31,-0.90
2015,11,20,09,32,-0.80
2015,11,20,09,33,-0.80
2015,11,20,09,34,-0.70
2015,11,20,09,35,-0.70
2015,11,20,09,36,-0.70
2015,11,20,09,37,-0.60
2015,11,20,09,38,-0.50
2015,11,20,09,39,-0.50
2015,11,20,09,40,-0.40
2015,11,20,09,41,-0.30
2015,11,20,09,42,-0.30
2015,11,20,09,43,-0.30
2015,11,20,09,44,-0.20
2015,11,20,09,45,-0.20
2015,11,20,09,46,-0.20
2015,11,20,09,47,-0.10
2015,11,20,09,48,-0.10
2015,11,20,09,49,0.00
2015,11,20,09,50,0.00
2015,11,20,09,51,0.10
2015,11,20,09,52,0.10
2015,11,20,09,53,0.10
2015,11,20,09,54,0.20
2015,11,20,09,55,0.20
2015,11,20,09,56,0.20
2015,11,20,09,57,0.30
2015,11,20,09,58,0.30
2015,11,20,09,59,0.30
2015,11,20,10,00,0.40
2015,11,20,10,01,0.40
2015,11,20,10,02,0.40
2015,11,20,10,03,0.50
2015,11,20,10,04,0.50
2015,11,20,10,05,0.50
2015,11,20,10,06,0.60
2015,11,20,10,07,0.60
2015,11,20,10,08,0.70
2015,11,20,10,09,0.70
2015,11,20,10,10,0.80
2015,11,20,10,11,0.80
2015,11,20,10,12,0.90
2015,11,20,10,13,0.90
2015,11,20,10,14,1.00
2015,11,20,10,15,1.00
2015,11,20,10,16,1.10
2015,11,20,10,17,1.10
2015,11,20,10,18,1.20
2015,11,20,10,19,1.20
2015,11,20,10,20,1.20
2015,11,20,10,21,1.30
2015,11,20,10,22,1.30
2015,11,20,10,23,1.40
2015,11,20,10,24,1.40
2015,11,20,10,25,1.50
2015,11,20,10,26,1.50
2015,11,20,10,27,1.60
2015,11,20,10,28,1.70
2015,11,20,10,29,1.70
2015,11,20,10,30,1.80
2015,11,20,10,31,1.90
2015,11,20,10,32,2.00
2015,11,20,10,33,2.00
2015,11,20,10,34,2.10
2015,11,20,10,35,2.10
2015,11,20,10,36,2.20
2015,11,20,10,37,2.20
2015,11,20,10,38,2.20
2015,11,20,10,39,2.30
2015,11,20,10,40,2.30
2015,11,20,10,41,2.30
2015,11,20,10,42,2.40
2015,11,20,10,43,2.40
2015,11,20,10,44,2.50
2015,11,20,10,45,2.50
2015,11,20,10,46,2.60
2015,11,20,10,47,2.60
2015,11,20,10,48,2.70
2015,11,20,10,49,2.70
2015,11,20,10,50,2.70
2015,11,20,10,51,2.80
2015,11,20,10,52,2.80
2015,11,20,10,53,2.90
2015,11,20,10,54,2.90
2015,11,20,10,55,3.00
2015,11,20,10,56,3.00
2015,11,20,10,57,3.10
2015,11,20,10,58,3.10
2015,11,20,10,59,3.20
2015,11,20,11,00,3.20
2015,11,20,11,01,3.20
2015,11,20,11,02,3.20
2015,11,20,11,03,3.30
2015,11,20,11,04,3.30
2015,11,20,11,05,3.40
2015,11,20,11,06,3.40
2015,11,20,11,07,3.50
2015,11,20,11,08,3.50
2015,11,20,11,09,3.60
2015,11,20,11,10,3.60
2015,11,20,11,11,3.70
2015,11,20,11,12,3.70
2015,11,20,11,13,3.80
2015,11,20,11,14,3.80
2015,11,20,11,15,3.90
2015,11,20,11,16,3.90
2015,11,20,11,17,4.00
2015,11,20,11,18,4.00
2015,11,20,11,19,4.10
2015,11,20,11,20,4.20
2015,11,20,11,21,4.20
2015,11,20,11,22,4.20
2015,11,20,11,23,4.20
2015,11,20,11,24,4.20
2015,11,20,11,25,4.30
2015,11,20,11,26,4.30
2015,11,20,11,27,4.30
2015,11,20,11,28,4.30
2015,11,20,11,29,4.40
2015,11,20,11,30,4.40
2015,11,20,11,31,4.40
2015,11,20,11,32,4.50
2015,11,20,11,33,4.50
2015,11,20,11,34,4.50
2015,11,20,11,35,4.60
2015,11,20,11,36,4.60
2015,11,20,11,37,4.50
2015,11,20,11,38,4.50
2015,11,20,11,39,4.50
2015,11,20,11,40,4.50
2015,11,20,11,41,4.50
2015,11,20,11,42,4.50
2015,11,20,11,43,4.60
2015,11,20,11,44,4.60
2015,11,20,11,45,4.70
2015,11,20,11,46,4.70
2015,11,20,11,47,4.70
2015,11,20,11,48,4.80
2015,11,20,11,49,4.80
2015,11,20,11,50,4.80
2015,11,20,11,51,4.80
2015,11,20,11,52,4.80
2015,11,20,11,53,4.80
2015,11,20,11,54,4.80
2015,11,20,11,55,4.90
2015,11,20,11,56,4.90
2015,11,20,11,57,5.00
2015,11,20,11,58,5.00
2015,11,20,11,59,5.00
2015,11,20,12,00,5.10
2015,11,20,12,01,5.10
2015,11,20,12,02,5.10
2015,11,20,12,03,5.10
2015,11,20,12,04,5.10
2015,11,20,12,05,5.20
2015,11,20,12,06,5.20
2015,11,20,12,07,5.30
2015,11,20,12,08,5.30
2015,11,20,12,09,5.30
2015,11,20,12,10,5.40
2015,11,20,12,11,5.30
2015,11,20,12,12,5.30
2015,11,20,12,13,5.30
2015,11,20,12,14,5.30
2015,11,20,12,15,5.20
2015,11,20,12,16,5.20
2015,11,20,12,17,5.20
2015,11,20,12,18,5.10
2015,11,20,12,19,5.10
2015,11,20,12,20,5.00
2015,11,20,12,21,5.00
2015,11,20,12,22,4.90
2015,11,20,12,23,4.90
2015,11,20,12,24,4.90
2015,11,20,12,25,4.90
2015,11,20,12,26,4.80
2015,11,20,12,27,4.80
2015,11,20,12,28,4.80
2015,11,20,12,29,4.80
2015,11,20,12,30,4.80
2015,11,20,12,31,4.80
2015,11,20,12,32,4.90
2015,11,20,12,33,4.90
2015,11,20,12,34,4.80
2015,11,20,12,35,4.80
2015,11,20,12,36,4.80
2015,11,20,12,37,4.90
2015,11,20,12,38,4.90
2015,11,20,12,39,4.90
2015,11,20,12,40,5.00
2015,11,20,12,41,5.10
2015,11,20,12,42,5.20
2015,11,20,12,43,5.20
2015,11,20,12,44,5.30
2015,11,20,12,45,5.40
2015,11,20,12,46,5.50
2015,11,20,12,47,5.60
2015,11,20,12,48,5.60
2015,11,20,12,49,5.70
2015,11,20,12,50,5.70
2015,11,20,12,51,5.70
2015,11,20,12,52,5.70
2015,11,20,12,53,5.70
2015,11,20,12,54,5.70
2015,11,20,12,55,5.60
2015,11,20,12,56,5.60
2015,11,20,12,57,5.60
2015,11,20,12,58,5.60
2015,11,20,12,59,5.60
2015,11,20,13,00,5.60
2015,11,20,13,01,5.70
2015,11,20,13,02,5.70
2015,11,20,13,03,5.60
2015,11,20,13,04,5.60
2015,11,20,13,05,5.60
2015,11,20,13,06,5.60
2015,11,20,13,07,5.60
2015,11,20,13,08,5.50
2015,11,20,13,09,5.50
2015,11,20,13,10,5.60
2015,11,20,13,11,5.60
2015,11,20,13,12,5.60
2015,11,20,13,13,5.50
2015,11,20,13,14,5.50
2015,11,20,13,15,5.50
2015,11,20,13,16,5.50
2015,11,20,13,17,5.40
2015,11,20,13,18,5.40
2015,11,20,13,19,5.40
2015,11,20,13,20,5.40
2015,11,20,13,21,5.40
2015,11,20,13,22,5.40
2015,11,20,13,23,5.40
2015,11,20,13,24,5.30
2015,11,20,13,25,5.30
2015,11,20,13,26,5.30
2015,11,20,13,27,5.30
2015,11,20,13,28,5.30
2015,11,20,13,29,5.30
2015,11,20,13,30,5.30
2015,11,20,13,31,5.30
2015,11,20,13,32,5.30
2015,11,20,13,33,5.30
2015,11,20,13,34,5.30
2015,11,20,13,35,5.30
2015,11,20,13,36,5.20
2015,11,20,13,37,5.20
2015,11,20,13,38,5.20
2015,11,20,13,39,5.20
2015,11,20,13,40,5.20
2015,11,20,13,41,5.20
2015,11,20,13,42,5.20
2015,11,20,13,43,5.20
2015,11,20,13,44,5.20
2015,11,20,13,45,5.30
2015,11,20,13,46,5.30
2015,11,20,13,47,5.30
2015,11,20,13,48,5.20
2015,11,20,13,49,5.20
2015,11,20,13,50,5.20
2015,11,20,13,51,5.20
2015,11,20,13,52,5.10
2015,11,20,13,53,5.10
2015,11,20,13,54,5.10
2015,11,20,13,55,5.10
2015,11,20,13,56,5.10
2015,11,20,13,57,5.10
2015,11,20,13,58,5.10
2015,11,20,13,59,5.10
2015,11,20,14,00,5.10
2015,11,20,14,01,5.10
2015,11,20,14,02,5.10
2015,11,20,14,03,5.10
2015,11,20,14,04,5.10
2015,11,20,14,05,5.10
2015,11,20,14,06,5.10
2015,11,20,14,07,5.10
2015,11,20,14,08,5.00
2015,11,20,14,09,5.00
2015,11,20,14,10,5.00
2015,11,20,14,11,4.90
2015,11,20,14,12,4.90
2015,11,20,14,13,4.90
2015,11,20,14,14,4.90
2015,11,20,14,15,4.90
2015,11,20,14,16,5.00
2015,11,20,14,17,5.00
2015,11,20,14,18,5.10
2015,11,20,14,19,5.10
2015,11,20,14,20,5.20
2015,11,20,14,21,5.20
2015,11,20,14,22,5.30
2015,11,20,14,23,5.40
2015,11,20,14,24,5.40
2015,11,20,14,25,5.50
2015,11,20,14,26,5.60
2015,11,20,14,27,5.60
2015,11,20,14,28,5.70
2015,11,20,14,29,5.80
2015,11,20,14,30,5.80
2015,11,20,14,31,5.90
2015,11,20,14,32,6.00
2015,11,20,14,33,6.10
2015,11,20,14,34,6.20
2015,11,20,14,35,6.20
2015,11,20,14,36,6.30
2015,11,20,14,37,6.30
2015,11,20,14,38,6.30
2015,11,20,14,39,6.40
2015,11,20,14,40,6.40
2015,11,20,14,41,6.30
2015,11,20,14,42,6.30
2015,11,20,14,43,6.30
2015,11,20,14,44,6.30
2015,11,20,14,45,6.30
2015,11,20,14,46,6.20
2015,11,20,14,47,6.20
2015,11,20,14,48,6.20
2015,11,20,14,49,6.20
2015,11,20,14,50,6.20
2015,11,20,14,51,6.20
2015,11,20,14,52,6.20
2015,11,20,14,53,6.20
2015,11,20,14,54,6.20
2015,11,20,14,55,6.20
2015,11,20,14,56,6.20
2015,11,20,14,57,6.30
2015,11,20,14,58,6.30
2015,11,20,14,59,6.40
2015,11,20,15,00,6.40
2015,11,20,15,01,6.50
2015,11,20,15,02,6.50
2015,11,20,15,03,6.60
2015,11,20,15,04,6.60
2015,11,20,15,05,6.60
2015,11,20,15,06,6.50
2015,11,20,15,07,6.50
2015,11,20,15,08,6.40
2015,11,20,15,09,6.40
2015,11,20,15,10,6.40
2015,11,20,15,11,6.30
2015,11,20,15,12,6.20
2015,11,20,15,13,6.20
2015,11,20,15,14,6.10
2015,11,20,15,15,6.10
2015,11,20,15,16,6.00
2015,11,20,15,17,6.00
2015,11,20,15,18,5.90
2015,11,20,15,19,5.90
2015,11,20,15,20,5.90
2015,11,20,15,21,5.90
2015,11,20,15,22,5.90
2015,11,20,15,23,5.80
2015,11,20,15,24,5.80
2015,11,20,15,25,5.80
2015,11,20,15,26,5.80
2015,11,20,15,27,5.80
2015,11,20,15,28,5.80
2015,11,20,15,29,5.80
2015,11,20,15,30,5.80
2015,11,20,15,31,5.80
2015,11,20,15,32,5.80
2015,11,20,15,33,5.90
2015,11,20,15,34,5.90
2015,11,20,15,35,6.00
2015,11,20,15,36,6.00
2015,11,20,15,37,6.10
2015,11,20,15,38,6.20
2015,11,20,15,39,6.20
2015,11,20,15,40,6.20
2015,11,20,15,41,6.30
2015,11,20,15,42,6.30
2015,11,20,15,43,6.30
2015,11,20,15,44,6.30
2015,11,20,15,45,6.40
2015,11,20,15,46,6.40
2015,11,20,15,47,6.50
2015,11,20,15,48,6.50
2015,11,20,15,49,6.60
2015,11,20,15,50,6.60
2015,11,20,15,51,6.60
2015,11,20,15,52,6.60
2015,11,20,15,53,6.60
2015,11,20,15,54,6.60
2015,11,20,15,55,6.60
2015,11,20,15,56,6.50
2015,11,20,15,57,6.50
2015,11,20,15,58,6.50
2015,11,20,15,59,6.40
2015,11,20,16,00,6.40
2015,11,20,16,01,6.40
2015,11,20,16,02,6.30
2015,11,20,16,03,6.30
2015,11,20,16,04,6.20
2015,11,20,16,05,6.20
2015,11,20,16,06,6.10
2015,11,20,16,07,6.00
2015,11,20,16,08,5.90
2015,11,20,16,09,5.80
2015,11,20,16,10,5.70
2015,11,20,16,11,5.60
2015,11,20,16,12,5.50
2015,11,20,16,13,5.30
2015,11,20,16,14,5.10
2015,11,20,16,15,4.90
2015,11,20,16,16,4.70
2015,11,20,16,17,4.40
2015,11,20,16,18,4.30
2015,11,20,16,19,4.10
2015,11,20,16,20,3.90
2015,11,20,16,21,3.80
2015,11,20,16,22,3.70
2015,11,20,16,23,3.70
2015,11,20,16,24,3.60
2015,11,20,16,25,3.50
2015,11,20,16,26,3.50
2015,11,20,16,27,3.40
2015,11,20,16,28,3.30
2015,11,20,16,29,3.30
2015,11,20,16,30,3.20
2015,11,20,16,31,3.20
2015,11,20,16,32,3.10
2015,11,20,16,33,3.00
2015,11,20,16,34,3.00
2015,11,20,16,35,2.90
2015,11,20,16,36,2.80
2015,11,20,16,37,2.60
2015,11,20,16,38,2.40
2015,11,20,16,39,2.20
2015,11,20,16,40,2.00
2015,11,20,16,41,1.90
2015,11,20,16,42,1.70
2015,11,20,16,43,1.60
2015,11,20,16,44,1.50
2015,11,20,16,45,1.40
2015,11,20,16,46,1.30
2015,11,20,16,47,1.30
2015,11,20,16,48,1.20
2015,11,20,16,49,1.20
2015,11,20,16,50,1.20
2015,11,20,16,51,1.20
2015,11,20,16,52,1.10
2015,11,20,16,53,1.10
2015,11,20,16,54,1.10
2015,11,20,16,55,1.10
2015,11,20,16,56,1.10
2015,11,20,16,57,1.10
2015,11,20,16,58,1.10
2015,11,20,16,59,1.10
2015,11,20,17,00,1.10
2015,11,20,17,01,1.10
2015,11,20,17,02,1.00
2015,11,20,17,03,1.00
2015,11,20,17,04,1.00
2015,11,20,17,05,0.90
2015,11,20,17,06,0.90
2015,11,20,17,07,0.80
2015,11,20,17,08,0.80
2015,11,20,17,09,0.80
2015,11,20,17,10,0.80
2015,11,20,17,11,0.80
2015,11,20,17,12,0.80
2015,11,20,17,13,0.80
2015,11,20,17,14,0.80
2015,11,20,17,15,0.80
2015,11,20,17,16,0.80
2015,11,20,17,17,0.80
2015,11,20,17,18,0.80
2015,11,20,17,19,0.70
2015,11,20,17,20,0.70
2015,11,20,17,21,0.70
2015,11,20,17,22,0.60
2015,11,20,17,23,0.60
2015,11,20,17,24,0.60
2015,11,20,17,25,0.50
2015,11,20,17,26,0.50
2015,11,20,17,27,0.40
2015,11,20,17,28,0.40
2015,11,20,17,29,0.40
2015,11,20,17,30,0.30
2015,11,20,17,31,0.30
2015,11,20,17,32,0.30
2015,11,20,17,33,0.30
2015,11,20,17,34,0.20
2015,11,20,17,35,0.20
2015,11,20,17,36,0.20
2015,11,20,17,37,0.20
2015,11,20,17,38,0.20
2015,11,20,17,39,0.10